User: anonymous   Login
Location: Newark
(16.3678°N, 77.8722°E)
Time: 18:14:47
(UTC+00:00)
Language:

Tiros 1 - Orbit

View from above orbital plane
View from above orbital plane
View from above satellite
View from above satellite

Ground track
Ground track

The orbit data is extracted from the following two-line orbital elements,

1    29U 60002B   21025.27963836 -.00000120  00000-0  13126-4 0  9994
2    29  48.3810 341.7213 0023416 101.6055 258.7487 14.74399815251394
Epoch (UTC): 25 January 2021 06:42:40
Eccentricity: 0.0023416
inclination: 48.3810°
perigee height: 630 km
apogee height: 663 km
right ascension of ascending node: 341.7213°
argument of perigee: 101.6055°
revolutions per day: 14.74399815
mean anomaly at epoch: 258.7487°
orbit number at epoch: 25139

The dashed part of the orbit path shows where the satellite is in the earth's shadow,  

DLR